Regional Weather Roundup
Issued by NWS

Home | Current Version | Previous Version | Graphics & Text | Print | Product List | Glossary Off
Versions: 1 2 3 4 5 6 7 8 9 10 11 12 13 14 15 16 17 18 19 20 21 22 23 24 25 26 27 28 29 30 31 32 33 34 35 36 37 38 39 40 41 42 43 44 45 46 47 48 49 50

000
ASUS43 KMKX 312321
RWRWI

WISCONSIN REGIONAL WEATHER ROUNDUP
NATIONAL WEATHER SERVICE MILWAUKEE/SULLIVAN WI
600 PM CDT MON AUG 31 2015

NOTE: "FAIR" INDICATES FEW OR NO CLOUDS BELOW 12,000 FEET WITH NO
SIGNIFICANT WEATHER AND/OR OBSTRUCTIONS TO VISIBILITY.

WIZ001-002-006>008-014>016-023>028-010000-
NORTHWEST WISCONSIN

CITY           SKY/WX    TMP DP  RH WIND       PRES   REMARKS
SUPERIOR ARPT  SUNNY     81  70  70 SW9G21    29.83S HX  84
ASHLAND        SUNNY     78  69  73 S9        29.88R HX  80
HAYWARD        SUNNY     77  69  76 S14       29.91F
SIREN          SUNNY     82  69  65 S8        29.88S HX  85
CUMBERLAND     MOSUNNY   77  70  78 S7        29.92F
RICE LAKE      SUNNY     78  70  76 S8        29.93F HX  81
CHETEK         MOSUNNY  N/A N/A N/A SE9       29.92F
LADYSMITH      SUNNY     77  69  78 S7        29.97S
EAU CLAIRE     SUNNY     81  70  69 S10       29.92F HX  84
MENOMONIE      SUNNY     81  71  72 SE8       29.92S HX  85
NEW RICHMOND   SUNNY     82  69  65 S12       29.90S HX  85
OSCEOLA        SUNNY     82  71  68 S10       29.91S HX  86
$$

WIZ003>005-009-010-017-018-010000-
NORTH CENTRAL WISCONSIN

CITY           SKY/WX    TMP DP  RH WIND       PRES   REMARKS
MANITOWISH WTR SUNNY     75  67  75 S10       29.95F
ARBOR VITAE    SUNNY     77  68  74 SW13      29.98R
WOODRUFF       SUNNY     77  68  74 SW13      29.98R
RHINELANDER    SUNNY     75  65  70 SW12G20   30.00R
EAGLE RIVER    SUNNY     76  63  64 SW8       29.97S
LAND O LAKES   SUNNY     78  63  59 SW5       29.97R HX  80
PHILLIPS       SUNNY     74  67  79 S8        29.96S
TOMAHAWK       SUNNY     73  65  74 SW3       30.00S
MEDFORD        PTSUNNY   74  70  85 S6        30.00S
MERRILL        SUNNY     75  68  77 SW3       30.00S
$$

WIZ029-030-035-036-043>047-010000-
CENTRAL WISCONSIN

CITY           SKY/WX    TMP DP  RH WIND       PRES   REMARKS
WAUSAU         SUNNY     77  67  71 S7        29.98F
MOSINEE        SUNNY     75  70  83 S6        30.01S
MARSHFIELD     SUNNY     79  67  66 S8        29.99S HX  81
STEVENS POINT  SUNNY     77  67  71 SW7       30.00S
WAUPACA        SUNNY     82  69  65 S6        29.99S HX  85
WAUTOMA        SUNNY     81  71  71 CALM      30.00S HX  85
WISC RAPIDS    SUNNY     80  67  64 S6        30.00S HX  82
CAMP DOUGLAS   PTSUNNY   81  75  83 VRB5      29.98F HX  86
$$

WIZ011>013-019>022-031-037>040-048>050-010000-
NORTHEAST WISCONSIN

CITY           SKY/WX    TMP DP  RH WIND       PRES   REMARKS
ANTIGO         MOSUNNY   75  67  75 SW12      30.01S
SHAWANO        SUNNY     79  69  70 SW3       29.98S HX  82
OCONTO         SUNNY     76  70  80 SW5       29.97S
STURGEON BAY   SUNNY     75  66  73 SW8       30.01S
GREEN BAY      SUNNY     77  69  76 S6        29.99S
MANITOWOC      SUNNY     74  66  76 MISG      30.00S
APPLETON       MOSUNNY   79  66  65 S9        29.99R HX  81
CLINTONVILLE   SUNNY     79  68  69 SW7       29.98S HX  81
OSHKOSH        SUNNY     78  69  73 S6        30.00R HX  80
$$

WIZ032>034-041-042-053>061-010000-
SOUTHWEST WISCONSIN

CITY           SKY/WX    TMP DP  RH WIND       PRES   REMARKS
LA CROSSE      SUNNY     83  70  64 S12       29.94F HX  87
SPARTA         SUNNY     82  67  61 S6        29.98S HX  84
VIROQUA          N/A     80  69  70 S7        30.00S HX  83
BOSCOBEL       MOSUNNY   84  70  62 S5        29.97F HX  88
PRAIRIE DU CHI SUNNY     83  69  62 SE5       29.96S HX  86
PLATTEVILLE    SUNNY     81  72  74 S8        30.00S HX  86
$$

WIZ056-057-062-063-064-067-068-010000-
SOUTH CENTRAL WISCONSIN

CITY           SKY/WX    TMP DP  RH WIND       PRES   REMARKS
REEDSBURG      SUNNY     80  69  68 S6        29.99S HX  83
BARABOO/DELLS  SUNNY     81  66  60 SW6       30.00S HX  83
LONE ROCK      SUNNY     82  68  62 S8        29.99F HX  85
MINERAL POINT  NOT AVBL
MADISON        MOSUNNY   81  67  62 S9        30.00S HX  83
MIDDLETON      SUNNY    N/A N/A N/A SW7       30.01S
WATERTOWN      SUNNY     80  69  70 SW5       30.00F HX  83
MONROE         SUNNY     81  68  65 S8        30.01F HX  83
JANESVILLE     MOSUNNY   82  68  61 S8        30.00F HX  85
$$

WIZ051-052-058>065-066-070>072-010000-
SOUTHEAST WISCONSIN

CITY           SKY/WX    TMP DP  RH WIND       PRES   REMARKS
MILWAUKEE      PTSUNNY   74  65  73 SE8       30.01F
WAUKESHA       SUNNY     79  66  65 SW6       30.03S HX  81
MILWAUKEE/TIMM SUNNY     81  64  57 S7        30.01F HX  82
RACINE         SUNNY     75  64  68 S7        30.03F
BURLINGTON     SUNNY     79  68  68 S3        30.02S HX  81
KENOSHA        SUNNY     77  68  73 SE6       30.02F
FOND DU LAC    SUNNY     79  69  71 SW6       30.00S HX  81
SHEBOYGAN      SUNNY     75  69  81 S8        30.01R
WEST BEND      SUNNY     79  66  65 CALM      30.01F HX  81
JUNEAU         SUNNY     79  69  72 S5        30.02S HX  81
$$

LSZ147-162-010000-
LAKE SUPERIOR

STATION/POSITION TIME  TEMP    WIND        PRES    WAVE
                       AIR SEA DIR/SP/G            HT/PER
                 (UTC) (F)     (DEG/KT/KT) (MB)    (FT/S)
W MID LAKE BUOY  2250   63 57  190/  8/  8 1010.1F   0
DEVILS ISLAND    2300   74     210/ 13/ 16 1010.2R
PORT WING        2200   81     200/ 14/ 20 1010.2S
SAXON HARBOR     2240   80     190/  6/ 11 1010.8S
$$

LMZ867-665-643>646-010000-
LAKE MICHIGAN

STATION/POSITION TIME  TEMP    WIND        PRES    WAVE
                       AIR SEA DIR/SP/G            HT/PER
                 (UTC) (F)     (DEG/KT/KT) (MB)    (FT/S)
CHAMBERS ISLAND  2200   74     180/  7/ 15 1014.6F
S GREEN BAY BUOY 2300   69 64  210/  8/  8 1016.6
N MID LAKE BUOY  2250   66 65  200/ 14/ 16 1014.9S   2/ 4
NORTHPORT PIER   2200   71     150/  5/ 11 1014.6F
KEWAUNEE LAKESHO 2200   53     170/ 10/ 11 1014.7S
SHEBOYGAN LAKESH 2300   68     190/ 16/ 17 1016.3R
PORT WASHINGTON  2240   63     200/  4/  8 1016.9S
ATWATER BUOY     2300   60 53  170/  8/  8 1017.6F
MILWAUKEE LAKESH 2210   62     150/ 14/ 14   N/A
S MID LAKE BUOY  2250   70 71  130/  4/  6 1016.4F   0
KENOSHA   LAKESH 2300   69     170/  5/  7 1016.3S
$$

TC  - TEMPERATURE IN CELSIUS
VSB - VISIBILITY IN STATUTE MILES
WCI - WIND CHILL INDEX
HX  - HEAT INDEX




USA.gov is the U.S. government's official web portal to all federal, state and local government web resources and services.